GFSNE_sfc_dewp_123.txt.gz
Dewpoint
59 59 58 59 58 58 58 57 55 52 52 54 55 56 56 56 56 56 56 55 56 57 58 58 58 58 57 58 57 56 53 51 50 50 49 49 49 49
58 58 58 58 58 58 58 58 58 56 53 55 55 55 53 53 54 54 54 53 55 56 56 56 56 55 56 56 55 53 51 50 49 49 49 48 48 48
57 57 57 55 56 56 56 57 56 56 53 54 54 53 53 53 53 53 53 53 53 54 56 56 55 54 55 54 53 51 49 49 48 48 47 47 47 47
48 49 49 50 51 52 53 52 52 52 51 50 52 51 50 51 51 51 50 50 51 52 54 55 54 54 53 52 51 49 48 47 46 46 45 45 45 45
47 47 47 46 47 47 47 47 48 48 49 48 47 50 50 49 48 48 48 49 48 49 51 53 54 54 53 52 51 49 47 46 45 43 42 42 42 43
43 43 43 42 42 43 43 44 44 45 44 44 44 44 46 47 46 45 44 45 45 46 47 49 52 53 52 52 50 48 47 45 44 43 41 40 40 40
39 39 41 40 42 42 41 41 40 40 40 41 42 42 41 43 43 44 44 45 45 45 44 45 47 48 50 51 49 47 46 44 44 42 41 40 40 39
37 37 37 38 38 41 42 41 39 38 37 37 38 38 38 42 43 44 44 43 41 44 43 43 44 45 47 48 48 47 45 44 43 41 40 39 38 39
34 33 32 29 34 35 35 36 36 38 40 37 37 38 38 40 41 41 42 43 43 44 41 40 42 41 44 45 48 47 45 45 43 41 39 38 37 38
31 30 29 30 33 33 32 33 32 32 33 34 35 37 39 40 41 41 42 42 43 38 40 37 36 38 39 38 44 47 45 43 42 41 39 37 37 37
29 29 29 29 33 34 32 32 30 31 33 36 36 38 39 41 42 42 39 38 38 37 37 36 34 34 35 35 37 44 43 42 41 39 36 35 36 36
27 27 32 30 33 33 30 29 29 30 32 32 34 36 38 38 41 40 40 37 37 34 35 35 32 32 32 32 34 37 40 42 41 39 35 34 34 36
26 25 26 31 33 32 32 29 30 31 31 34 35 36 37 37 38 39 39 38 36 36 36 35 32 32 32 30 32 32 36 38 37 35 34 31 33 35
27 27 29 32 31 31 30 31 31 31 29 30 32 34 35 35 37 37 36 36 37 35 36 34 32 32 32 29 29 32 32 34 34 32 31 29 31 32
29 30 32 30 30 29 29 30 29 30 28 28 29 31 35 36 34 34 33 33 32 32 33 34 33 32 32 31 30 31 31 32 32 31 28 29 29 28
30 31 30 28 28 28 28 28 28 29 27 29 30 31 34 34 33 33 32 32 32 30 30 32 32 32 32 32 32 30 31 30 31 30 29 29 27 29
30 30 29 27 26 26 27 27 28 28 28 29 29 30 32 33 33 33 32 32 31 31 28 29 31 31 31 32 30 31 31 30 30 29 29 28 28 28
29 28 26 26 25 25 25 25 27 26 27 28 29 30 30 32 32 32 32 31 30 31 29 28 29 29 30 30 34 30 30 29 29 29 30 27 27 27
27 27 26 26 25 24 25 26 26 27 28 28 28 29 31 31 32 32 31 31 31 32 31 29 29 30 27 26 28 31 29 28 27 27 28 28 28 28
27 26 25 25 23 25 25 26 25 26 26 27 28 29 31 31 31 31 31 31 31 31 29 30 29 30 30 28 26 26 31 28 27 28 28 29 30 32
25 25 24 24 24 25 25 24 24 24 25 26 27 28 30 30 31 32 31 32 32 30 28 28 30 34 31 30 25 25 28 32 31 29 28 27 26 27
23 23 23 25 25 25 25 24 24 24 23 24 26 27 28 30 31 31 32 30 30 29 30 30 30 30 29 29 25 24 26 29 31 31 30 29 29 24
24 24 24 25 25 25 24 23 23 24 24 24 25 27 27 28 31 31 32 31 31 29 28 27 28 29 28 28 25 25 25 26 27 27 30 31 31 32

GFSNE_sfc_dewp_126.txt.gz
Dewpoint
60 59 58 58 58 57 57 55 53 51 52 53 54 56 56 56 56 56 55 55 56 57 57 57 57 58 59 60 59 59 59 59 57 55 53 52 51 51
58 58 57 58 58 57 57 58 57 56 53 55 55 56 54 54 54 54 53 52 54 55 56 55 55 56 57 58 58 57 58 57 55 54 53 52 51 50
55 57 54 54 54 53 54 54 54 54 52 53 54 53 53 52 53 52 51 50 51 54 54 54 54 55 56 56 56 56 56 56 54 53 52 51 50 49
49 49 48 49 50 50 50 49 50 50 49 46 48 49 50 49 49 48 49 49 49 50 51 51 51 53 55 55 55 55 55 54 52 52 51 50 49 48
46 46 46 45 44 44 45 45 46 45 46 45 43 45 46 47 46 46 46 46 47 48 48 49 49 50 52 54 54 54 52 52 51 50 49 48 47 46
42 43 41 41 41 41 42 41 40 40 40 40 40 40 41 42 42 42 42 42 44 45 47 48 48 49 49 51 53 52 51 50 50 48 47 45 44 43
39 39 39 40 40 41 40 39 38 37 37 37 37 37 37 37 38 41 40 41 40 43 44 43 44 44 46 48 49 50 50 49 49 48 47 45 43 43
36 35 35 35 37 38 37 37 36 35 36 36 35 35 35 36 38 38 37 37 36 42 42 42 40 43 43 45 48 50 50 49 48 47 47 45 43 42
33 32 29 32 35 33 34 34 34 35 35 33 32 33 33 35 37 36 37 37 37 40 41 39 40 41 43 44 47 48 49 49 48 47 45 44 42 40
30 29 29 30 33 32 32 32 31 31 32 32 33 33 33 34 35 36 37 38 38 39 37 37 37 39 40 41 44 46 47 48 47 46 44 43 42 41
28 29 29 29 33 33 31 30 29 29 31 33 33 34 36 38 38 37 36 35 33 34 37 36 37 35 33 35 37 41 44 47 46 45 44 42 40 39
27 27 31 30 32 32 30 29 28 28 29 30 30 34 35 36 38 38 37 35 34 34 35 34 33 32 34 33 33 35 38 45 44 44 42 40 38 36
27 26 27 31 33 32 31 29 29 29 30 28 29 29 32 35 35 36 37 36 34 33 37 34 33 32 32 32 32 32 34 36 38 39 39 38 36 36
29 28 29 32 31 30 29 30 30 29 29 28 28 29 30 32 34 36 35 35 35 33 34 35 33 33 32 30 30 32 32 32 33 32 32 34 34 36
30 30 32 31 30 28 29 29 28 28 27 28 28 29 29 31 33 34 34 34 33 32 32 33 33 32 32 31 30 30 31 31 32 32 31 31 30 28
30 30 31 30 28 27 27 28 28 27 27 27 28 29 29 31 32 34 32 32 31 26 27 32 32 32 32 32 30 30 31 29 31 31 31 29 28 30
30 29 27 26 25 25 25 25 26 26 27 28 28 28 29 30 30 33 32 31 29 29 29 21 25 28 31 32 26 30 29 30 31 30 29 27 27 28
28 25 25 24 24 24 24 24 25 25 27 27 28 28 28 29 30 31 32 30 29 27 28 18 20 25 29 28 33 29 27 29 29 29 29 23 25 27
26 25 24 24 24 24 24 24 24 24 26 26 27 27 28 28 29 29 30 30 27 27 31 22 19 23 24 23 28 32 25 27 27 26 26 25 23 27
26 25 24 24 23 24 24 24 24 23 24 25 26 26 26 26 28 29 31 30 28 25 29 24 22 24 24 22 24 26 30 24 26 24 28 29 31 32
25 25 24 24 23 24 23 24 24 24 24 24 24 25 24 25 26 29 30 32 32 30 28 23 25 32 28 28 24 25 29 32 29 25 28 26 26 27
24 23 24 24 25 24 24 24 23 22 23 24 24 23 24 25 26 27 30 30 30 27 23 30 31 27 28 27 23 24 27 30 32 31 30 29 26 22
24 25 25 24 25 24 24 24 23 21 21 23 23 22 23 24 25 26 29 31 29 26 23 23 27 28 28 26 25 25 26 27 29 28 30 32 33 33

GFSNE_sfc_dewp_129.txt.gz
Dewpoint
59 59 59 59 59 58 57 55 53 50 50 53 54 56 56 56 55 55 55 54 56 56 56 56 56 56 54 55 56 59 60 60 60 59 59 57 56 55
60 59 59 58 58 57 57 57 56 54 52 55 55 54 54 53 54 54 53 52 53 52 53 53 53 53 54 55 56 57 58 59 59 59 59 58 56 55
57 57 53 54 53 53 53 52 51 50 49 50 51 50 50 50 50 50 50 49 49 50 49 49 49 50 50 51 53 54 56 57 58 59 59 58 56 55
49 49 49 48 47 47 48 47 47 48 47 45 47 46 46 48 47 45 46 47 45 47 48 50 50 50 50 49 50 51 52 55 55 57 58 57 56 54
47 46 45 45 44 45 45 44 43 42 44 43 42 42 42 41 41 42 42 42 44 46 47 47 48 48 49 50 50 50 51 51 53 55 55 55 54 53
43 41 41 39 39 41 40 39 39 39 38 38 37 37 37 38 39 38 38 40 40 39 40 43 46 47 48 48 48 48 48 49 52 54 53 52 51 51
38 38 39 40 42 39 37 36 36 36 36 35 34 35 35 35 34 37 36 37 37 37 38 40 40 42 43 44 45 47 48 49 50 52 52 51 49 48
34 33 35 36 36 37 36 36 36 34 33 32 32 32 32 33 34 34 33 33 31 36 36 37 38 38 40 41 44 46 47 47 49 51 51 50 49 47
32 31 32 33 34 32 33 34 33 33 33 32 31 31 31 32 33 32 33 34 34 37 37 36 37 37 39 41 44 45 46 47 47 48 49 49 48 46
30 29 30 32 33 32 31 30 30 30 30 31 31 32 32 32 34 36 36 36 35 35 36 33 35 35 38 38 41 42 42 44 45 46 48 48 46 45
28 28 29 30 33 34 31 30 29 29 30 32 32 32 34 35 36 35 34 34 33 34 34 35 35 35 36 37 36 38 39 40 42 44 48 46 45 43
27 26 31 30 33 33 30 29 28 28 29 29 29 30 30 31 35 35 36 33 32 32 35 33 35 33 33 33 33 34 34 38 41 46 46 44 42 38
29 28 28 32 33 32 31 28 29 29 29 28 27 28 29 29 32 33 33 34 32 32 35 34 33 33 32 33 32 33 33 35 36 37 42 40 38 36
29 29 29 33 32 31 29 30 30 29 27 27 27 27 28 29 30 31 32 34 35 33 34 33 31 33 32 32 31 32 32 33 33 32 33 35 36 36
30 31 32 32 32 28 28 28 28 27 26 27 26 27 28 29 30 31 33 33 33 33 33 32 31 32 32 32 31 30 32 31 32 32 31 32 32 31
30 29 31 31 30 28 27 27 27 26 26 26 27 28 29 29 30 31 31 32 32 29 25 26 28 31 31 32 31 29 31 28 29 30 30 30 29 30
30 28 27 26 25 25 25 25 25 25 26 27 26 26 27 28 28 30 31 32 30 28 28 28 28 29 31 31 27 24 27 28 29 28 29 27 27 28
28 27 24 24 24 24 24 24 23 25 26 25 25 25 25 26 26 28 30 30 30 27 28 28 27 27 29 29 32 24 27 28 29 30 29 25 25 28
27 26 24 24 24 24 24 24 24 24 25 25 24 25 26 25 25 25 27 29 29 27 28 29 23 24 21 22 27 32 25 26 27 28 28 27 26 28
26 26 24 24 23 23 23 24 23 24 24 24 24 25 25 24 23 23 26 27 29 27 29 29 21 23 23 24 23 27 30 24 24 26 27 30 30 30
24 23 24 24 25 23 24 24 24 23 23 16 20 21 22 22 22 23 24 27 29 28 25 28 24 30 28 28 25 26 30 30 28 25 27 26 27 27
24 23 24 24 25 24 24 23 23 21 18 19 20 21 22 22 22 22 23 24 26 28 25 23 31 29 27 26 24 25 28 30 31 31 30 29 27 23
26 26 26 25 26 25 24 17 18 21 19 19 19 19 21 20 22 23 23 24 26 26 23 24 25 28 27 25 26 26 27 27 28 30 32 33 32 32

GFSNE_sfc_dewp_132.txt.gz
Dewpoint
60 59 59 59 59 59 58 58 56 52 51 52 53 55 55 55 54 54 54 53 53 52 51 51 51 52 52 52 53 53 54 55 57 59 60 60 61 61
60 59 59 59 59 58 58 57 56 54 52 54 52 52 52 52 53 52 51 50 50 49 48 50 50 49 49 49 50 50 51 53 55 57 58 59 59 61
56 58 54 54 53 52 52 51 50 51 51 50 51 50 48 48 47 47 47 47 47 47 47 47 47 48 49 49 49 50 50 50 52 54 56 57 58 60
48 49 48 47 47 48 47 46 45 45 47 45 46 45 45 43 42 41 43 43 42 45 44 42 42 42 44 47 48 49 49 48 49 50 52 54 55 56
44 44 44 44 44 44 44 42 43 43 43 42 41 41 41 38 38 39 38 39 41 42 41 41 40 42 44 43 44 45 47 46 47 48 50 51 54 57
42 41 41 41 41 40 38 38 37 38 37 37 36 36 36 36 36 35 34 36 37 37 38 39 41 41 42 43 43 44 45 45 46 47 48 50 52 55
39 39 40 40 40 38 36 35 35 34 34 34 33 34 34 33 32 34 33 34 34 35 35 36 37 38 39 40 40 42 44 44 45 46 47 48 50 53
33 35 35 34 35 36 35 34 34 33 32 31 31 31 31 32 32 32 32 31 31 35 34 35 37 36 37 37 40 42 43 43 44 45 46 47 48 51
32 33 33 33 33 32 33 33 32 32 31 31 30 29 30 31 31 31 32 34 34 35 35 34 35 34 36 37 40 42 42 42 42 43 44 45 46 48
30 29 31 31 33 32 31 30 30 29 30 30 30 31 31 32 33 34 35 34 34 34 34 32 33 32 35 37 40 40 41 41 41 41 42 42 45 47
27 29 30 30 33 33 30 29 29 28 30 31 32 32 31 31 32 34 33 32 30 31 33 34 34 34 34 35 35 38 38 39 39 40 44 46 45 48
27 26 31 31 33 33 30 28 27 27 28 28 27 28 30 30 30 31 31 30 30 30 33 33 33 33 32 34 34 35 34 37 38 40 43 45 41 38
28 28 28 32 33 32 31 28 28 29 27 27 26 26 27 29 29 28 30 31 30 30 33 34 32 32 32 32 33 33 32 34 33 36 38 40 39 37
29 29 29 32 32 31 29 29 30 29 26 25 26 26 26 26 27 29 31 32 33 33 34 33 30 31 30 30 31 33 30 32 32 33 33 35 36 36
30 30 31 31 32 29 28 28 28 26 25 25 25 25 27 26 27 29 31 32 33 33 33 33 31 31 30 29 30 31 32 28 32 32 31 31 31 29
29 29 31 30 29 28 26 26 26 25 24 25 26 26 24 24 26 27 28 30 31 30 29 28 30 29 29 29 29 29 28 26 24 26 28 28 30 31
29 29 27 26 25 25 25 24 25 24 24 27 24 24 23 23 24 24 26 29 29 29 28 29 30 28 30 29 26 23 23 22 22 26 26 26 27 28
29 27 26 26 24 24 24 24 24 24 26 25 24 24 23 23 23 24 23 24 27 27 28 28 24 21 22 25 31 27 21 21 25 29 29 23 23 28
29 27 26 26 24 24 23 22 24 25 26 24 20 23 24 24 22 21 22 23 25 26 28 28 23 20 16 15 24 29 27 22 26 28 28 26 24 28
27 26 26 26 25 22 24 25 25 24 24 22 17 15 18 21 21 20 21 22 23 25 28 28 25 22 19 19 23 24 30 24 25 26 28 29 30 31
26 25 26 26 25 26 26 25 25 24 24 16 10 12 17 21 20 20 21 24 25 23 25 26 28 32 24 23 20 23 28 30 28 24 27 27 27 27
26 26 26 27 26 26 25 25 24 21 16 15 15 16 19 20 20 20 21 21 22 23 25 28 29 26 22 22 20 23 27 29 31 31 33 31 27 24
26 27 27 27 27 26 26 25 21 20 19 18 18 17 16 18 20 21 21 22 23 23 25 25 26 24 24 23 23 25 27 26 28 30 31 33 32 34

GFSNE_sfc_dewp_135.txt.gz
Dewpoint
59 59 59 59 59 59 59 58 56 52 52 53 52 54 54 53 52 52 51 51 50 50 49 48 49 50 49 49 50 50 50 50 51 52 54 56 58 60
58 59 58 59 59 58 58 58 58 56 52 54 50 51 49 50 48 48 48 49 48 47 46 47 47 47 47 48 48 48 48 49 49 50 52 54 56 58
52 54 53 53 53 52 52 51 50 50 52 50 50 48 46 43 43 44 46 44 45 44 45 43 42 42 41 43 45 47 47 48 48 48 49 50 51 54
47 47 46 47 46 46 45 44 44 44 46 45 45 42 43 42 41 41 40 41 40 40 40 40 41 40 42 43 42 43 44 45 45 45 47 48 49 50
43 42 43 43 42 42 42 41 42 41 42 41 40 41 41 39 37 38 37 37 37 37 38 39 40 40 39 39 40 42 42 43 44 45 45 46 47 49
41 41 41 40 39 39 37 37 37 37 36 36 36 36 36 36 35 34 32 34 34 34 36 38 38 38 39 40 40 40 40 43 43 43 44 44 45 47
39 39 40 39 39 37 35 35 34 33 33 33 32 32 32 32 31 33 32 33 32 34 34 34 35 36 37 38 38 39 41 42 42 42 43 44 44 45
34 34 34 34 35 36 35 34 33 32 31 31 30 29 30 30 31 32 31 31 30 34 34 33 35 35 35 36 38 40 40 41 41 42 41 42 43 44
33 33 32 33 32 31 33 33 32 32 32 30 29 29 29 30 31 31 31 32 32 33 34 31 34 34 35 36 38 39 40 41 41 41 41 41 42 44
30 31 31 32 33 31 30 29 29 29 30 30 30 30 30 30 30 32 33 34 33 32 34 29 33 33 34 35 37 39 40 39 39 40 40 41 43 44
28 30 30 30 33 34 29 29 27 28 30 31 30 30 30 30 30 31 28 28 26 28 30 33 32 32 33 33 34 38 38 38 38 38 39 43 43 44
26 28 32 31 32 32 28 27 26 27 28 26 26 27 28 29 29 29 28 27 27 28 32 31 31 32 29 29 34 34 33 36 37 36 39 40 41 38
28 28 28 32 32 31 31 27 28 28 26 25 25 26 26 26 27 27 29 30 28 28 31 32 32 31 30 31 32 32 34 33 32 33 36 38 39 38
29 29 29 32 31 31 28 28 29 27 25 24 25 24 25 25 25 26 27 30 31 31 32 33 31 30 29 27 26 30 32 32 31 31 33 34 34 35
29 30 30 31 31 29 28 27 27 25 24 24 24 23 24 24 25 23 24 27 29 32 32 33 32 31 29 27 27 28 30 30 28 30 25 26 30 26
30 29 30 30 29 27 26 26 26 24 24 23 23 22 19 17 20 20 21 24 26 25 25 27 29 30 27 26 29 27 28 27 25 26 28 26 26 27
30 28 27 27 26 25 25 24 25 24 24 23 19 20 21 20 22 17 14 21 23 24 25 27 24 27 28 28 27 28 27 27 22 28 24 22 24 26
29 28 27 27 26 25 24 24 24 23 23 24 22 16 19 20 21 21 15 22 22 23 23 25 25 23 20 25 30 28 26 24 20 22 23 19 21 25
28 27 26 26 26 26 24 23 24 23 24 24 14 11 16 15 19 17 16 20 21 21 23 25 26 23 15 14 24 30 27 26 24 22 25 23 21 27
27 26 24 25 25 26 25 25 24 23 24 24 18 10 8 9 18 18 17 19 20 22 22 23 25 24 20 18 20 23 29 23 25 20 25 28 28 31
26 25 25 24 26 26 24 25 25 25 24 20 8 7 13 12 18 18 18 22 23 21 20 20 24 31 29 24 20 23 26 31 29 21 27 26 27 27
26 25 25 25 26 26 26 25 25 24 13 12 13 12 13 14 17 18 19 19 20 20 20 22 24 23 21 21 19 20 25 28 30 32 34 32 27 24
25 25 24 27 27 27 26 26 23 18 14 15 14 13 13 16 18 19 19 20 20 19 20 21 22 20 21 21 23 21 23 25 28 30 31 34 33 34

GFSNE_sfc_dewp_138.txt.gz
Dewpoint
57 57 58 59 59 58 58 58 55 52 52 53 52 51 51 48 48 48 48 49 49 48 49 49 49 49 48 47 47 48 48 48 48 49 51 51 52 54
55 57 57 58 58 58 57 58 57 55 51 53 49 47 45 45 43 45 45 44 45 47 47 47 45 44 43 42 43 44 46 46 47 48 49 49 49 50
52 52 49 51 50 49 49 49 47 48 52 48 48 47 43 42 42 43 43 43 42 41 41 41 41 41 41 42 43 43 43 44 44 46 46 47 47 47
46 46 46 46 45 45 44 43 44 43 44 45 44 42 42 40 40 40 38 39 39 38 39 39 40 40 39 40 40 40 41 41 42 43 44 45 45 46
43 43 43 43 42 41 41 40 41 39 41 40 39 41 41 37 37 37 36 36 35 36 37 39 38 38 39 39 40 40 40 41 42 42 42 43 44 45
41 40 39 38 38 37 37 36 36 36 36 36 35 35 34 35 34 33 32 34 33 33 35 37 37 37 38 39 39 39 40 40 41 41 42 42 43 44
39 38 38 38 37 36 34 34 34 33 33 32 32 31 30 30 30 32 31 31 32 34 34 33 34 35 36 37 37 38 38 40 41 42 42 41 41 41
33 33 33 34 35 35 35 34 33 31 30 30 28 28 28 30 31 30 30 30 29 33 32 31 32 32 34 35 37 38 39 41 41 40 41 41 41 40
33 33 32 32 31 30 32 33 33 33 32 30 28 28 28 29 29 28 30 31 30 32 32 30 30 30 33 34 36 37 39 41 39 39 39 39 40 41
31 31 31 31 31 30 29 28 28 29 30 30 29 28 29 30 30 30 31 29 28 28 30 28 29 31 32 33 36 37 39 38 38 38 38 38 42 42
29 30 30 30 33 33 29 27 27 28 31 30 29 29 30 30 30 28 25 25 24 25 27 32 32 30 30 31 31 37 35 34 36 36 37 37 40 41
27 29 33 31 32 34 28 26 26 27 27 25 25 26 27 27 28 26 25 22 25 23 30 27 25 30 29 28 31 31 31 34 34 35 36 36 37 38
27 27 28 32 32 31 30 27 28 28 25 24 24 25 25 26 26 26 26 24 26 26 28 30 31 30 29 29 25 26 28 30 32 32 34 35 36 36
29 29 29 33 31 31 29 28 30 26 25 25 25 24 24 24 24 25 26 26 27 28 30 31 30 30 29 26 24 25 28 30 31 31 31 32 34 34
30 30 32 31 31 29 29 28 27 25 24 24 24 23 24 22 23 22 22 24 22 26 29 29 31 31 30 27 26 26 28 29 29 27 28 28 28 28
32 30 31 30 28 28 27 26 26 24 24 24 23 22 18 15 17 17 11 13 22 19 26 20 23 28 27 26 27 26 28 27 29 28 28 28 28 27
29 29 28 27 26 26 26 25 25 25 23 22 19 16 18 18 19 15 13 16 21 22 22 23 25 26 27 28 26 27 28 28 28 25 27 27 26 25
31 27 26 26 26 25 25 25 24 23 23 23 22 15 12 14 17 14 11 11 18 21 19 20 22 25 19 23 29 26 28 26 26 25 26 25 22 24
30 28 26 25 25 25 26 25 23 24 24 24 22 13 10 11 16 14 13 14 17 17 18 20 21 23 18 13 22 30 26 24 26 25 23 23 26 27
27 26 25 24 24 23 24 25 25 25 24 22 20 8 3 6 12 10 12 10 16 19 20 19 19 22 22 24 20 23 30 27 26 25 20 25 28 31
26 25 25 24 23 23 24 25 26 25 24 23 9 4 7 4 10 10 12 20 22 17 17 17 20 27 27 22 19 22 25 30 31 24 26 23 25 28
27 26 25 25 24 22 21 24 25 25 24 14 11 6 8 7 10 14 16 16 17 17 17 18 21 23 23 19 18 17 21 25 28 32 33 33 28 24
27 26 24 23 22 23 24 24 25 22 15 14 12 11 7 10 14 17 16 18 18 17 18 18 19 19 23 21 23 17 19 23 27 29 31 35 34 33

GFSNE_sfc_dewp_141.txt.gz
Dewpoint
55 56 55 57 59 60 59 58 54 51 52 55 52 50 47 46 46 46 45 47 48 49 49 48 47 46 46 46 46 46 45 46 47 48 48 49 49 51
55 55 55 57 57 58 59 58 58 55 52 54 49 45 44 42 44 43 44 44 43 43 43 43 43 43 43 42 42 43 45 44 45 45 46 47 47 47
51 50 49 50 49 49 49 49 48 50 52 48 46 45 41 41 41 42 41 40 40 41 41 41 40 40 41 41 41 41 41 42 43 44 44 45 45 45
46 46 46 45 45 45 45 44 43 43 47 45 43 41 40 39 39 38 37 38 37 37 38 39 39 38 39 39 40 40 41 41 42 42 43 43 44 45
43 43 43 42 41 41 41 40 40 39 41 41 39 40 40 36 36 35 34 35 34 35 35 37 38 38 38 39 40 40 40 41 41 42 43 43 43 44
40 38 37 37 36 37 36 35 35 36 36 36 36 35 35 35 35 32 32 33 33 33 35 34 35 36 36 37 38 38 39 39 40 41 41 42 42 42
38 37 37 37 37 34 32 32 32 32 33 33 31 31 32 31 30 31 31 31 32 36 34 33 33 34 34 35 36 37 38 39 40 42 41 40 41 41
33 33 34 35 35 36 35 34 33 30 30 30 30 29 29 30 31 30 30 29 29 35 32 30 32 32 33 35 35 36 38 39 41 40 39 39 39 39
33 32 31 30 31 30 33 34 34 34 33 30 29 29 29 30 31 30 30 30 29 29 29 29 32 32 33 30 34 36 37 40 37 37 38 38 38 39
32 32 32 32 31 29 28 28 29 31 31 29 29 29 30 31 31 30 29 28 28 29 29 27 32 32 31 32 33 36 37 35 35 35 36 37 37 38
30 31 32 32 35 33 28 27 27 29 30 29 29 29 29 29 29 28 26 26 25 26 29 31 30 30 32 32 34 35 34 33 35 35 35 35 36 37
29 30 33 32 32 33 28 26 27 28 28 24 24 26 27 27 27 27 27 26 25 26 32 28 28 29 28 32 33 32 32 32 33 33 34 34 35 35
28 29 29 32 32 32 30 28 28 29 25 25 25 25 25 24 24 26 27 28 25 25 28 30 30 30 30 29 31 32 33 32 32 32 32 33 33 34
26 27 29 32 32 32 32 30 31 27 25 25 25 24 23 24 25 26 26 27 28 27 28 29 28 30 29 28 27 31 33 33 33 30 31 32 33 33
30 31 32 33 32 30 29 29 29 25 25 25 24 24 24 25 26 25 26 26 26 26 28 30 30 30 30 28 27 27 30 31 32 32 30 29 28 30
33 33 32 32 30 28 28 28 26 25 25 24 24 24 25 24 23 24 23 24 24 25 29 29 28 28 27 28 29 27 30 28 30 30 29 29 28 29
32 30 30 28 27 26 26 26 26 26 25 25 24 23 23 23 22 23 22 22 22 22 24 26 27 27 28 28 26 28 28 28 30 28 27 26 28 29
31 29 28 28 27 26 25 25 26 25 25 25 23 23 22 22 22 22 21 20 20 21 22 24 25 25 26 27 29 28 28 28 29 29 27 26 27 30
32 31 30 29 27 26 26 26 25 25 26 25 24 23 22 21 21 21 21 19 19 21 23 24 23 23 22 21 24 28 29 30 27 26 26 27 27 30
32 31 30 28 27 27 26 26 26 26 26 25 24 23 21 19 19 20 20 18 19 22 22 22 23 23 21 22 24 27 28 29 29 27 26 28 29 31
31 29 29 28 27 27 27 26 26 26 26 25 24 21 21 19 19 19 19 20 21 20 19 21 23 25 26 26 24 25 27 28 30 30 30 28 28 28
29 29 28 28 27 27 26 26 26 26 26 25 24 22 21 20 19 19 19 19 19 20 20 22 23 24 25 25 24 24 25 27 29 31 34 33 31 27
30 29 29 28 28 27 25 25 26 26 26 25 23 22 20 20 20 20 20 19 19 19 20 20 22 23 23 25 26 25 26 26 28 30 30 34 34 34

GFSNE_sfc_dewp_144.txt.gz
Dewpoint
56 56 56 56 57 57 59 58 55 52 53 56 51 48 46 47 46 45 46 46 46 46 45 45 45 46 46 46 45 45 46 47 48 47 47 47 48 49
54 55 55 54 55 55 57 58 58 55 52 52 47 45 44 44 43 43 43 42 42 43 43 42 42 42 43 44 44 44 45 44 44 45 45 46 46 46
51 51 49 50 50 51 51 50 50 52 53 47 46 44 42 41 40 40 39 39 39 40 41 41 42 43 41 41 41 41 42 42 43 44 44 44 44 44
47 47 46 46 46 46 46 45 45 45 49 45 43 42 39 37 38 37 36 37 37 35 38 39 39 39 39 39 40 41 41 41 42 42 42 43 43 44
43 44 44 44 42 42 42 41 41 40 44 44 40 40 39 36 36 36 35 36 33 33 35 38 37 36 37 37 38 39 39 40 41 41 41 42 42 43
39 38 37 37 37 37 36 35 35 37 37 37 36 34 35 34 35 33 32 33 32 32 35 35 36 36 36 36 37 37 38 39 40 41 41 42 42 41
37 35 37 38 37 34 31 32 32 32 33 33 32 32 32 31 31 32 32 31 31 35 35 32 31 32 34 33 35 35 36 38 38 40 43 41 40 39
33 32 33 35 35 36 36 36 33 30 30 31 31 29 30 30 31 31 31 30 30 35 30 28 31 32 33 34 33 34 35 37 40 39 38 38 39 39
31 30 28 28 28 28 34 34 34 34 33 30 29 28 28 29 30 30 30 30 29 29 29 28 30 32 32 28 33 34 36 38 36 36 36 37 37 38
31 30 29 30 30 27 26 28 29 30 29 26 28 28 29 30 31 30 30 29 29 29 29 29 31 30 29 30 33 35 37 35 34 35 35 35 35 36
30 30 31 31 34 30 28 27 27 30 29 29 29 30 29 29 30 28 28 28 27 27 30 29 29 29 30 31 32 32 33 33 34 35 34 34 35 35
28 29 32 31 35 32 28 25 25 27 28 24 25 26 26 26 25 26 27 27 26 27 32 29 29 29 28 31 32 31 31 32 33 33 33 33 34 33
26 27 30 34 33 34 31 28 28 29 26 24 25 25 25 24 26 26 26 28 27 26 28 28 28 29 29 29 31 33 33 33 33 33 32 33 33 34
25 26 28 32 33 32 33 30 31 29 26 25 26 25 25 26 27 27 27 28 28 28 28 29 27 27 28 27 27 31 33 34 34 31 32 32 32 33
26 28 30 32 34 32 31 31 31 29 26 26 26 26 26 27 27 28 28 29 30 29 29 32 29 30 29 27 26 28 30 30 31 31 30 29 29 29
32 33 32 32 32 30 29 29 29 28 27 27 26 27 27 27 26 26 26 26 26 29 33 32 31 29 26 27 28 27 29 28 30 31 29 29 27 29
34 32 32 31 30 28 28 27 28 28 27 28 27 25 25 25 25 26 25 24 24 25 26 29 32 31 30 28 25 27 29 28 30 30 30 27 27 30
35 32 30 30 29 28 27 27 27 27 27 26 25 24 24 24 25 26 25 24 23 24 25 26 27 25 27 29 31 29 29 29 29 29 29 27 26 30
34 32 31 30 30 29 29 28 28 27 30 27 25 24 24 24 24 24 24 24 23 23 24 25 25 23 22 22 25 29 29 29 29 28 27 26 27 28
34 32 32 31 31 31 30 30 28 28 27 26 25 25 24 24 24 23 24 23 23 23 23 25 25 24 22 22 24 26 28 29 29 29 27 27 29 30
33 33 32 32 32 32 31 31 30 28 28 26 25 25 25 24 23 23 23 22 22 22 21 23 26 26 26 26 24 25 28 29 30 30 30 29 28 28
32 33 33 33 33 32 32 31 30 28 27 27 26 25 25 24 23 23 22 22 22 22 21 23 25 25 25 25 23 24 25 28 30 31 33 33 30 27
33 33 33 33 32 32 32 31 30 29 29 28 27 26 25 24 24 23 22 21 21 21 21 21 23 24 24 26 25 25 25 26 27 28 30 32 33 34

GFSNE_sfc_dewp_147.txt.gz
Dewpoint
56 56 55 56 56 56 56 56 54 51 53 54 50 47 47 46 46 46 45 46 46 46 46 45 44 44 44 46 46 46 46 47 46 45 45 47 47 48
54 54 52 53 53 54 54 54 56 55 52 51 47 45 45 43 43 43 42 41 40 41 42 42 42 42 43 43 43 43 43 43 44 44 44 45 46 46
50 50 49 49 50 50 51 51 51 52 52 46 46 44 41 42 40 40 39 40 40 37 39 39 40 42 41 41 41 41 42 42 43 44 44 44 44 44
47 48 47 46 46 45 47 46 45 46 49 46 43 42 40 38 38 38 37 37 38 35 36 37 39 39 38 38 39 40 41 41 41 41 42 42 43 43
42 41 41 43 43 43 42 42 42 41 45 44 41 41 39 36 36 36 35 37 35 35 33 35 38 37 37 38 37 38 39 39 39 40 41 41 42 43
38 37 36 35 36 38 36 35 35 38 39 40 38 36 36 35 36 34 33 34 33 32 35 35 36 37 35 36 36 36 37 38 38 39 40 41 43 42
36 34 36 38 37 36 32 32 33 34 35 35 34 34 34 33 32 33 33 32 32 37 36 32 31 32 34 34 35 35 35 36 37 38 41 40 40 40
33 32 32 35 35 37 36 36 36 33 32 34 32 30 30 31 31 32 32 31 30 35 30 29 31 33 34 34 33 34 35 35 38 38 37 38 38 37
32 31 26 26 31 30 33 33 33 33 33 32 30 30 29 30 31 32 31 31 30 29 30 29 31 31 32 29 33 34 35 38 36 36 36 36 35 36
32 31 29 29 30 28 28 29 30 30 30 27 30 30 31 31 32 30 30 30 30 31 30 28 31 30 30 30 33 34 35 35 35 35 35 36 35 35
30 30 31 31 33 30 29 29 29 30 29 29 31 31 29 30 29 29 29 28 27 28 32 29 29 29 29 30 33 31 33 33 33 34 34 34 35 35
29 29 32 31 36 33 30 27 26 28 28 26 28 28 27 27 25 28 28 27 27 27 31 27 27 28 25 30 31 31 32 33 33 33 33 34 34 32
27 28 30 33 34 36 32 29 29 30 28 26 26 26 26 26 27 28 28 28 26 26 28 29 26 27 28 27 27 28 30 31 31 32 33 33 33 33
27 27 29 35 35 34 34 31 32 30 27 27 27 27 27 28 28 28 28 28 28 28 28 28 27 26 25 25 24 26 28 29 31 30 31 31 32 32
28 30 33 33 34 34 33 33 31 31 29 27 28 29 28 28 27 27 28 28 27 28 29 26 26 26 26 25 24 25 26 27 30 31 29 30 28 28
33 31 32 33 34 33 31 31 31 31 29 29 29 29 28 27 26 26 23 24 23 25 29 27 26 25 25 25 26 23 26 25 29 30 29 28 28 28
33 33 32 32 32 31 30 30 31 31 29 29 29 28 27 27 25 25 23 22 20 21 23 25 29 28 27 27 26 26 26 28 28 28 28 27 27 27
34 32 31 31 31 30 29 29 29 29 29 29 28 27 26 25 24 25 25 24 22 21 22 24 24 24 24 24 27 27 27 28 28 28 28 27 26 27
34 33 31 31 31 30 30 30 29 29 29 28 27 27 26 25 23 23 23 23 23 22 23 23 24 23 21 18 22 28 24 24 25 27 27 27 27 28
34 33 32 31 31 31 31 31 30 30 28 27 27 27 25 24 22 22 22 22 22 22 21 23 24 26 22 21 21 22 26 26 28 27 27 27 28 31
32 33 32 32 32 32 32 31 30 29 28 27 27 26 25 24 21 22 23 22 23 22 19 17 21 26 26 26 23 22 24 28 29 29 28 28 27 26
31 33 33 33 33 33 32 31 30 29 28 27 27 26 25 24 22 21 22 21 21 21 21 22 23 24 25 24 22 23 24 25 28 30 30 31 29 25
32 33 34 34 34 33 32 31 30 29 28 27 27 26 25 24 23 23 23 23 21 22 20 20 21 22 23 24 25 25 25 25 26 27 27 31 33 34

GFSNE_sfc_dewp_150.txt.gz
Dewpoint
55 55 54 55 55 55 55 55 53 49 50 50 48 48 47 47 47 45 44 46 47 46 46 45 44 44 44 45 45 45 45 45 45 45 44 45 46 47
51 52 51 51 52 52 52 53 53 53 50 49 46 46 45 42 44 42 42 41 40 40 42 41 41 42 43 42 42 42 42 42 43 44 45 45 45 46
47 47 46 46 46 46 47 48 48 49 51 46 45 44 42 42 40 40 39 40 39 37 37 38 41 41 41 40 40 40 41 42 42 43 43 43 43 44
43 43 43 45 43 43 43 41 40 42 47 46 43 41 40 39 39 38 37 37 37 35 36 36 39 39 38 38 38 38 40 40 40 40 41 42 42 43
40 38 37 38 40 41 40 38 39 41 45 44 40 40 38 36 36 36 33 34 35 35 35 36 37 37 37 36 37 37 37 38 38 39 39 40 41 42
37 37 36 36 36 36 35 33 34 35 39 39 38 36 36 35 35 31 31 32 32 36 36 35 34 34 34 35 35 35 36 36 37 38 38 40 41 41
35 35 36 37 38 37 33 32 31 31 32 32 32 34 33 31 29 31 30 31 32 34 31 30 29 30 33 35 35 36 35 36 36 38 40 39 39 39
34 33 35 36 36 37 36 36 36 31 30 30 29 28 27 28 30 30 29 28 27 31 28 28 30 31 32 31 34 34 35 35 37 37 36 36 37 37
32 31 26 26 32 32 32 33 33 33 32 29 27 27 28 29 29 29 28 27 27 28 28 27 30 28 31 29 33 34 35 36 35 35 36 36 35 35
31 30 27 28 29 27 28 29 30 29 29 29 30 29 30 30 29 28 28 27 28 30 29 24 28 27 29 29 33 33 33 34 34 34 34 34 34 35
31 30 30 30 32 30 29 28 30 28 29 31 32 30 31 30 28 27 25 25 24 25 27 26 26 26 26 28 31 33 32 32 33 34 34 34 34 35
29 29 35 31 35 32 30 26 26 28 25 26 27 27 27 26 27 27 26 21 23 22 29 23 23 24 20 24 27 28 30 32 32 33 33 33 33 31
28 28 31 35 37 35 33 27 27 29 28 25 25 25 25 25 27 26 27 23 21 22 26 27 25 25 25 23 24 24 26 27 28 30 31 31 32 32
27 28 29 35 35 36 35 32 32 30 27 25 25 25 25 26 25 25 26 26 26 26 27 24 19 21 25 24 23 24 26 26 28 30 31 31 31 31
28 29 32 37 36 35 35 35 33 30 28 26 26 25 25 24 24 24 24 26 22 26 29 23 22 16 20 23 23 24 24 25 27 29 30 29 28 28
34 32 33 35 35 34 34 33 31 30 28 26 26 25 24 21 23 20 15 15 13 16 23 20 20 26 26 26 24 23 25 25 25 28 30 28 28 28
33 31 30 30 30 30 30 30 30 30 29 27 26 24 25 27 26 24 18 13 12 12 15 18 23 28 28 26 24 24 24 25 27 28 27 27 28 28
33 30 30 30 30 31 30 29 29 30 29 29 28 27 25 25 25 26 25 24 23 21 12 14 24 25 24 23 26 22 22 24 25 24 26 27 26 27
34 31 30 30 30 30 30 29 28 29 29 28 27 25 24 22 25 24 24 24 23 23 22 23 24 23 21 18 21 25 22 22 23 25 27 26 25 26
34 32 31 31 31 31 30 30 30 29 29 28 26 25 23 24 24 23 23 22 22 22 21 18 14 23 22 20 21 22 26 25 26 26 27 28 28 30
32 33 33 32 32 32 31 31 30 29 28 27 26 25 24 23 23 23 23 23 24 23 21 20 22 24 26 26 21 21 23 27 28 27 28 28 27 26
31 32 33 33 32 32 32 32 31 31 29 27 26 25 25 24 23 23 22 22 22 21 21 23 24 24 23 23 21 22 23 25 28 30 31 30 28 25
31 32 33 33 34 33 33 32 31 30 29 28 26 26 25 24 24 24 23 23 23 22 22 22 22 23 22 23 23 23 24 25 26 27 25 29 31 33

GFSNE_sfc_dewp_153.txt.gz
Dewpoint
53 52 52 52 53 53 53 53 52 48 48 49 47 46 46 46 46 45 44 47 48 47 47 46 45 45 45 45 44 44 44 44 44 44 45 45 45 46
49 48 49 49 50 50 50 51 51 51 49 48 45 45 44 43 43 42 42 41 39 41 41 41 42 44 42 42 41 41 41 42 43 44 44 44 44 45
45 45 45 45 44 43 44 44 44 46 50 45 45 44 41 41 40 40 39 40 39 37 38 39 42 40 39 38 39 39 40 42 42 42 42 42 43 43
42 41 40 42 41 41 41 39 39 40 47 45 43 41 39 39 39 37 36 36 36 35 36 37 39 38 37 37 38 38 39 39 39 39 40 40 41 42
38 37 36 36 36 40 37 35 37 40 40 44 40 40 38 36 36 36 35 34 33 37 37 37 36 35 35 35 36 36 37 37 37 38 38 39 39 42
36 36 35 35 34 34 32 31 32 34 37 37 36 35 35 35 34 31 29 32 32 34 33 32 32 32 34 35 35 35 35 36 36 37 37 39 39 38
35 35 35 37 38 37 32 32 29 29 30 30 31 31 30 29 28 30 29 29 32 30 28 28 29 31 33 34 35 35 35 36 35 36 36 36 36 37
34 33 34 36 35 35 35 37 34 30 29 28 27 27 27 28 29 29 28 27 24 30 28 26 30 30 30 30 32 34 34 34 35 34 35 36 36 35
34 32 31 27 34 32 32 34 34 34 33 29 27 27 27 28 28 28 27 26 26 27 28 25 28 26 29 28 33 34 34 34 34 34 34 34 34 34
32 31 28 26 28 30 28 29 28 28 29 29 28 29 29 29 28 28 27 26 27 29 28 23 26 25 27 28 35 34 34 33 33 34 34 34 34 34
32 31 30 28 32 33 28 29 28 28 30 33 32 32 32 29 28 27 24 24 23 25 26 25 24 24 25 26 29 30 30 32 32 32 33 32 33 34
31 31 36 31 35 33 29 27 28 27 26 27 27 27 28 27 28 27 26 21 22 21 26 22 23 23 19 23 26 26 26 29 30 31 31 31 31 31
29 29 30 36 37 36 34 27 27 28 29 26 25 25 25 26 26 26 26 22 17 18 26 22 15 18 17 20 23 23 25 26 26 28 31 30 30 31
27 28 29 35 38 37 35 33 32 32 27 25 25 26 25 25 25 25 26 25 26 24 26 23 21 20 24 22 20 22 24 26 24 25 27 31 32 31
28 30 32 35 38 37 37 36 33 29 27 26 26 26 26 25 25 24 25 26 23 26 28 22 20 23 25 23 23 24 25 25 26 22 25 27 28 27
36 32 33 34 37 35 35 35 32 30 29 27 27 26 24 22 24 23 19 21 16 19 22 20 18 25 25 26 26 24 25 24 25 26 26 28 27 27
36 31 31 32 33 33 31 31 31 31 31 27 25 24 24 25 25 24 21 20 17 15 15 20 22 23 27 24 18 22 22 22 23 24 24 24 25 27
36 32 30 30 30 30 31 31 30 31 30 28 27 26 25 24 23 22 24 23 21 22 20 14 15 17 19 22 26 21 18 18 21 23 24 25 25 26
34 33 31 30 29 30 30 30 30 30 30 29 27 26 25 23 24 22 23 24 23 22 24 24 23 15 16 14 20 24 16 22 23 23 25 26 26 27
34 34 31 30 30 30 31 30 30 29 29 29 28 27 25 24 22 22 22 21 22 23 23 24 21 18 18 18 20 20 25 23 24 25 25 27 28 30
33 34 34 32 31 31 31 31 31 30 29 28 27 26 25 24 23 23 23 23 23 22 21 22 23 24 25 23 17 19 22 26 27 26 27 27 26 25
31 32 34 34 33 33 32 32 32 32 30 29 28 27 26 25 23 23 23 22 22 22 23 23 24 24 23 21 18 21 23 24 26 28 30 30 27 24
32 32 33 34 33 33 33 32 32 32 30 29 28 27 26 24 24 24 23 23 23 22 22 22 23 23 22 19 22 22 22 23 25 25 25 28 30 31

GFSNE_sfc_dewp_156.txt.gz
Dewpoint
48 48 49 49 50 50 50 52 50 45 48 48 47 46 46 45 45 43 43 45 46 46 46 46 47 47 46 46 45 44 44 44 44 44 45 46 46 46
47 46 46 46 46 46 48 49 50 49 47 47 44 44 44 42 40 40 40 40 41 42 42 44 45 44 43 41 41 41 42 42 43 43 43 43 44 44
43 43 43 42 43 42 42 42 43 46 47 46 45 43 41 40 39 38 39 38 39 39 39 42 41 40 39 40 39 39 41 41 40 40 41 41 42 42
41 40 39 39 41 40 39 38 38 39 46 47 43 41 39 39 37 36 36 36 35 38 39 40 39 38 38 37 38 38 39 38 39 39 39 40 40 41
38 37 36 36 36 36 36 34 35 38 39 44 41 40 37 37 35 36 34 34 35 38 36 35 35 35 35 36 36 36 37 36 37 38 38 38 38 39
37 35 34 34 34 34 33 29 30 34 35 36 36 35 35 34 32 31 28 31 32 29 30 33 34 36 37 36 36 35 35 36 37 36 36 37 37 37
35 34 34 35 37 36 32 30 28 28 29 29 29 30 29 28 27 29 28 29 29 29 28 28 30 31 31 33 33 34 33 35 34 34 34 35 35 36
36 34 33 37 36 35 35 37 34 29 28 27 27 26 26 27 27 28 28 25 22 29 27 26 29 27 28 29 32 34 35 34 35 35 34 34 34 34
36 34 33 34 35 33 33 35 33 34 32 28 26 26 26 27 28 27 26 25 24 27 27 24 27 25 27 28 35 34 34 34 33 34 35 35 35 35
35 34 32 29 30 31 29 29 27 27 28 28 27 28 28 29 29 27 26 26 27 28 27 23 25 25 26 27 35 33 31 31 32 33 33 33 33 33
34 32 31 28 30 34 29 29 27 27 32 33 32 33 33 30 27 27 23 23 23 24 26 24 24 23 24 24 28 29 29 31 31 31 32 31 32 33
32 32 36 32 34 35 29 28 28 27 28 28 28 29 28 28 29 26 25 20 22 21 26 22 22 22 18 22 25 25 26 28 30 30 31 31 30 30
30 30 31 36 37 36 36 28 28 28 29 26 26 26 25 25 26 26 26 22 16 19 26 22 15 19 18 20 23 22 24 25 25 26 29 31 31 31
29 28 30 35 38 39 37 34 33 31 28 26 25 25 25 25 25 26 26 25 25 23 26 24 17 19 21 18 20 22 22 24 24 23 25 28 30 31
32 30 32 34 37 38 39 37 35 31 28 26 25 26 26 26 24 23 24 25 21 25 28 22 19 19 24 22 22 21 24 23 24 19 23 25 26 27
39 34 33 34 35 36 37 38 33 30 28 27 27 26 25 24 23 21 16 15 14 17 22 19 17 21 21 21 23 23 23 21 21 23 24 24 25 26
38 33 32 32 32 33 33 33 33 32 31 29 27 26 26 25 24 20 18 14 12 11 14 20 22 22 25 20 17 22 22 21 21 21 22 21 23 25
36 33 33 31 31 31 32 32 32 33 31 30 28 27 26 25 24 21 20 20 17 15 18 15 14 17 17 22 26 21 20 20 18 21 22 22 23 25
35 34 33 32 30 31 31 32 31 32 32 31 29 27 26 25 26 23 23 22 21 17 17 23 22 15 10 10 19 23 14 18 21 22 23 23 24 25
36 35 34 33 31 30 31 31 31 31 31 30 29 28 27 25 24 24 24 22 21 17 17 16 19 20 13 16 20 17 24 22 22 22 22 24 26 29
34 34 35 34 32 32 32 32 32 31 31 30 29 28 27 26 25 24 24 24 23 20 15 15 20 23 24 22 16 18 20 25 25 24 24 25 24 24
33 33 34 35 33 32 32 32 32 32 31 30 29 28 28 27 26 24 24 22 22 22 18 17 22 20 17 20 16 17 19 22 24 27 28 28 27 23
34 33 33 34 34 33 32 32 32 32 32 31 29 29 28 26 26 25 24 24 23 21 19 18 18 19 20 19 20 19 19 20 22 23 25 28 30 31

GFSNE_sfc_dewp_159.txt.gz
Dewpoint
48 46 47 48 47 48 48 49 49 45 44 48 47 45 45 43 42 41 40 44 45 46 48 48 47 47 47 46 46 46 46 46 46 47 46 46 47 46
45 45 45 45 45 44 44 47 48 48 46 47 45 44 43 41 40 38 39 40 41 43 45 44 43 42 42 42 42 43 44 44 44 44 44 44 44 44
42 42 41 42 41 42 41 41 41 44 45 47 45 43 42 40 39 38 38 38 37 40 42 42 41 41 41 41 41 42 42 41 41 42 42 42 42 42
41 40 39 39 38 39 39 38 38 38 43 45 44 42 38 38 36 36 35 35 37 40 40 39 39 39 38 39 39 39 39 38 38 38 39 40 40 40
40 38 37 36 36 36 36 35 34 37 38 43 43 40 38 36 35 35 33 35 31 33 34 36 36 35 36 38 37 37 37 37 37 37 37 38 39 38
39 37 35 34 33 33 33 31 29 32 34 36 38 36 36 33 32 29 26 31 31 28 30 34 36 38 38 38 37 36 35 36 36 36 36 35 35 36
37 36 34 34 36 36 34 30 28 26 29 30 31 30 29 28 26 27 27 28 28 28 27 29 30 29 30 30 31 33 33 34 34 35 36 35 35 35
36 35 34 36 37 37 36 37 33 28 26 27 27 27 26 26 27 27 26 23 21 28 27 25 29 25 27 27 34 34 35 34 34 35 35 35 36 34
35 35 34 33 36 33 34 34 34 35 33 28 25 26 25 27 27 27 26 24 22 26 26 23 27 24 26 27 36 35 34 33 33 34 34 34 34 34
35 34 34 33 33 33 31 30 28 27 27 29 28 27 27 28 28 27 25 24 27 28 27 22 25 23 25 27 34 32 31 31 32 32 33 33 32 32
35 34 34 34 34 36 31 29 28 26 31 32 31 32 32 31 29 27 23 23 21 24 25 24 23 23 23 24 28 30 29 30 30 31 31 32 32 32
34 33 37 34 36 36 32 28 27 27 27 29 29 31 29 29 29 25 25 20 22 21 25 22 22 22 18 23 24 25 25 27 29 29 30 31 31 30
33 32 32 37 39 37 37 30 28 28 29 28 27 27 26 26 27 27 26 22 17 18 26 20 11 16 14 17 22 22 24 24 25 26 28 29 30 30
32 31 31 35 38 40 38 37 35 32 28 27 26 26 26 25 26 26 26 25 25 23 27 24 13 14 8 10 17 22 20 23 23 23 23 27 29 29
36 34 34 34 37 38 40 39 38 32 29 27 26 26 26 27 26 26 25 26 23 26 28 23 20 14 12 11 14 16 22 22 22 19 19 23 24 24
38 38 36 35 35 36 36 38 36 32 30 28 28 27 26 25 25 24 21 22 21 19 22 19 18 19 24 23 20 22 21 18 18 21 23 23 23 24
35 33 34 33 32 33 34 35 35 33 32 29 28 26 26 26 25 24 23 20 20 17 20 22 23 19 24 22 20 21 22 19 20 22 22 21 22 23
36 33 34 34 32 32 32 33 34 35 32 30 29 27 26 26 25 24 23 22 21 20 19 20 15 17 18 21 25 20 18 19 20 21 22 21 22 23
38 35 34 34 33 32 32 32 32 33 33 32 30 29 28 27 27 24 24 23 23 22 21 23 23 18 7 10 18 23 18 19 21 21 22 22 22 23
37 36 34 34 33 32 32 32 32 32 32 32 32 30 29 27 26 24 24 23 23 22 19 19 17 19 14 10 15 17 23 21 21 20 21 23 24 28
34 35 35 35 34 33 32 32 32 32 32 32 32 30 29 28 26 26 25 26 24 21 20 18 20 24 19 14 15 17 20 23 23 23 23 24 23 24
34 34 34 35 35 33 32 32 32 32 32 31 31 30 29 28 27 26 25 25 25 23 23 18 19 14 10 14 14 14 18 21 23 25 26 27 26 23
34 34 34 34 34 34 33 32 32 32 32 32 31 30 29 28 28 27 25 25 24 23 22 20 17 15 14 16 18 16 16 18 20 21 23 26 29 30

GFSNE_sfc_dewp_165.txt.gz
Dewpoint
50 48 47 48 48 49 49 48 47 42 42 46 49 48 47 44 42 38 38 42 44 45 45 45 45 45 47 48 49 49 49 50 50 50 50 50 50 49
47 46 46 46 46 46 47 46 47 47 44 46 48 48 46 43 41 37 37 40 43 44 43 43 42 43 44 45 45 44 45 45 46 47 47 46 46 45
45 45 45 44 43 43 44 44 44 44 44 46 47 47 45 43 40 37 36 39 40 40 41 40 40 41 42 42 42 42 42 43 43 43 44 44 44 44
44 43 43 42 42 41 41 41 42 42 42 42 43 45 43 40 39 36 33 35 34 35 37 38 37 39 40 40 40 40 40 40 40 41 42 43 43 42
43 43 42 42 41 40 38 38 40 38 39 39 40 42 43 38 37 36 33 34 28 30 36 38 38 39 39 38 38 38 37 38 39 39 38 38 38 39
42 42 42 41 40 40 37 36 35 35 33 35 36 38 39 38 35 34 32 31 31 27 29 36 37 38 37 35 35 35 36 37 38 37 36 36 36 36
40 41 41 41 40 39 34 34 32 31 30 30 31 33 34 34 34 32 30 28 30 31 29 29 31 30 29 27 31 35 35 37 36 36 37 37 36 37
39 39 39 40 40 41 40 38 34 30 28 28 28 26 27 29 29 29 29 26 23 30 27 26 29 28 27 27 36 36 36 35 35 34 34 34 34 34
39 38 37 37 39 37 39 40 39 39 35 29 27 27 26 28 29 28 28 27 24 25 27 24 27 26 26 25 36 37 34 33 32 32 33 33 33 33
40 38 37 36 36 37 35 35 35 35 37 36 34 31 29 28 29 28 28 27 26 27 28 26 25 25 25 26 34 35 32 32 30 31 31 32 32 32
39 38 37 36 37 39 36 35 33 32 33 35 33 32 33 33 31 28 27 26 24 24 29 27 26 25 25 24 31 34 31 30 30 29 30 31 31 31
37 36 38 38 38 39 38 35 33 33 30 28 31 34 34 34 34 29 28 28 26 26 28 28 27 27 27 27 28 29 29 29 29 27 29 30 30 29
36 35 35 37 38 40 40 38 35 34 32 29 29 31 31 31 31 31 26 28 29 27 28 28 27 27 26 26 26 27 27 26 24 25 27 28 29 29
37 36 36 37 38 38 39 40 40 37 31 31 29 30 31 29 30 29 28 28 27 27 28 28 28 27 26 26 24 26 27 27 27 27 27 27 28 28
37 38 39 40 40 39 38 39 41 39 34 30 30 30 31 33 31 30 29 29 29 28 29 29 28 26 26 26 25 25 26 27 28 27 27 26 25 25
36 36 36 37 38 39 37 37 37 39 35 33 32 32 32 31 29 30 28 28 27 26 27 29 28 27 26 26 26 25 26 25 27 26 26 26 24 23
40 38 36 35 35 35 34 34 36 36 36 35 33 31 30 29 29 28 28 27 27 25 25 26 27 27 27 28 25 25 24 24 25 25 24 23 23 23
37 37 36 36 35 35 34 34 34 35 36 35 34 33 32 31 30 28 27 26 26 26 25 25 25 25 24 25 28 25 24 23 25 25 24 23 23 24
37 36 36 36 35 34 34 34 33 34 35 34 33 33 33 32 31 28 27 27 26 26 26 25 24 24 22 22 23 27 25 24 23 22 22 22 23 24
35 34 34 35 35 35 35 34 33 33 33 33 33 33 33 32 31 29 28 27 27 27 26 25 25 24 23 22 22 24 24 24 23 22 22 23 24 26
34 33 33 34 35 35 35 34 33 33 33 33 33 33 33 32 31 30 29 29 28 27 25 25 26 28 26 23 21 21 20 22 23 24 24 24 23 24
33 33 33 33 34 34 34 34 33 33 33 33 33 33 33 33 32 31 29 29 29 27 27 27 27 26 23 22 22 20 18 20 22 23 24 26 26 24
32 32 33 33 33 34 34 33 33 33 33 33 33 33 33 32 32 31 30 30 30 26 26 24 24 24 24 23 22 20 20 20 20 22 24 24 27 29

GFSNE_sfc_dewp_168.txt.gz
Dewpoint
49 49 47 47 48 48 48 48 45 42 42 44 46 50 49 48 44 42 41 42 45 45 44 44 45 46 47 47 48 49 50 51 51 51 52 52 51 51
48 47 48 48 48 48 48 46 46 45 43 45 47 48 48 47 44 41 39 40 43 43 42 42 42 44 44 45 45 46 46 47 47 48 48 48 47 47
45 46 46 46 47 46 46 45 45 45 43 45 46 46 46 47 44 42 39 39 40 38 39 40 40 41 42 42 42 42 43 43 44 44 45 45 46 46
41 43 44 44 45 45 44 43 42 43 43 43 44 45 44 46 43 41 37 34 35 33 36 37 37 40 39 40 40 40 40 41 42 43 44 43 43 42
41 40 40 42 44 45 44 42 40 39 42 42 42 43 43 42 41 40 38 36 32 30 34 39 39 39 39 38 38 37 38 39 40 39 39 39 39 39
42 41 40 40 41 43 43 42 37 37 36 37 36 37 37 37 38 37 36 35 33 28 30 36 38 39 37 35 34 34 36 38 38 37 37 37 36 37
42 41 42 41 42 42 40 40 37 34 32 32 32 33 32 32 32 34 33 33 30 31 30 29 33 32 30 28 29 33 36 37 36 37 37 36 36 36
41 41 41 41 42 43 43 42 40 35 33 32 30 28 26 26 28 29 30 28 25 32 29 27 28 29 29 28 33 36 37 36 36 34 34 34 34 34
41 41 40 39 40 39 41 43 42 41 38 33 30 27 26 27 28 28 29 29 26 27 26 23 27 26 28 22 35 38 36 35 33 32 33 33 33 33
42 41 40 40 39 38 38 37 37 38 39 38 36 33 30 29 29 28 29 28 28 27 28 27 26 25 26 25 35 38 35 34 32 30 31 31 32 32
39 40 40 39 40 41 38 37 35 35 37 40 40 39 36 34 32 30 30 29 27 25 30 28 28 27 26 25 31 36 34 33 32 31 31 31 32 32
36 37 39 39 40 39 38 37 36 35 34 33 34 36 35 34 35 32 30 32 29 28 30 30 30 29 31 29 29 33 33 33 32 32 30 30 31 29
35 35 35 38 39 39 40 38 37 38 36 35 33 32 32 32 33 34 31 32 35 32 30 32 33 31 31 30 29 30 31 31 28 26 27 29 29 29
36 36 37 39 39 39 39 39 41 41 39 36 34 32 32 33 34 34 33 30 30 31 29 33 33 32 32 30 28 29 30 29 28 29 30 29 29 30
37 38 40 40 40 40 41 40 40 39 38 36 34 35 35 36 36 34 33 31 33 30 30 33 33 32 31 30 29 28 28 30 30 30 30 28 26 26
39 39 39 39 39 39 38 39 38 38 38 36 35 37 37 36 34 34 33 31 30 31 32 32 32 31 29 28 28 27 28 28 29 29 28 27 26 25
37 37 38 37 37 37 37 36 36 36 36 37 37 35 34 35 33 34 33 32 29 30 29 28 29 30 29 29 27 27 27 27 28 28 26 25 24 25
37 35 35 36 37 36 35 35 35 35 35 35 35 34 33 33 33 32 32 31 30 30 30 29 28 27 26 27 29 27 27 28 27 27 26 25 25 26
35 35 34 33 34 34 36 36 35 35 34 34 34 34 33 33 33 32 32 31 30 31 30 30 28 27 25 25 28 30 29 28 26 24 24 24 25 26
35 34 34 33 33 33 35 35 35 34 34 33 33 34 33 33 32 33 32 30 30 30 30 30 28 28 27 28 27 28 31 28 25 23 24 25 26 27
33 33 33 33 33 34 34 35 34 34 33 33 33 33 33 33 32 33 32 31 31 30 29 29 29 31 30 26 24 24 27 27 25 25 25 25 25 24
34 33 33 33 33 34 34 34 34 33 33 33 33 33 33 33 32 33 33 31 31 31 30 31 30 29 26 24 24 24 24 23 22 24 25 26 26 25
35 34 34 33 34 34 34 33 33 33 33 33 33 33 33 32 33 33 33 32 32 31 30 27 28 27 25 25 25 23 24 21 22 23 26 26 27 28

GFSNE_sfc_dewp_174.txt.gz
Dewpoint
46 47 47 46 47 46 47 48 46 41 39 41 44 48 48 48 48 45 43 41 42 44 43 42 43 44 45 46 47 48 49 50 51 52 53 53 53 53
44 46 47 47 46 46 48 49 48 46 41 41 42 43 45 44 46 45 43 42 42 42 40 41 41 42 43 44 44 45 46 47 48 50 50 50 51 51
44 43 44 46 46 46 45 47 46 45 42 43 43 43 43 43 43 45 45 40 40 40 37 38 39 41 41 42 42 43 44 46 47 47 47 47 48 48
44 43 42 42 44 45 45 44 44 44 43 42 41 41 42 42 42 42 42 40 36 37 35 37 38 40 40 39 39 40 43 43 43 44 44 45 45 45
44 43 43 42 41 43 44 44 44 44 42 41 40 40 40 41 41 40 38 38 37 38 34 35 39 40 39 38 37 38 40 40 40 40 40 40 41 41
42 43 43 42 41 41 42 43 43 42 40 39 38 38 37 37 36 36 34 36 37 34 32 32 38 40 40 38 36 34 38 38 38 39 39 39 39 40
41 42 43 43 43 43 40 40 41 40 39 36 34 34 34 33 32 33 34 33 32 34 31 31 30 35 36 37 34 33 34 37 37 38 36 35 35 35
40 41 41 42 43 46 46 45 42 38 37 35 34 33 32 32 31 31 30 29 26 31 29 29 30 30 32 31 32 34 35 38 37 35 34 34 34 34
41 41 41 41 42 41 43 45 44 45 44 38 35 34 32 31 29 28 28 29 28 30 27 24 29 28 29 30 33 34 37 38 37 33 32 32 33 33
39 40 41 41 41 41 39 38 39 41 42 43 41 39 35 33 28 29 29 29 29 28 26 24 27 26 27 27 32 32 38 38 37 35 32 31 32 33
36 36 37 39 41 42 39 37 37 38 40 43 43 43 42 42 34 30 28 27 26 28 28 26 27 26 26 26 28 34 38 38 36 36 34 33 33 32
36 36 39 39 40 40 38 37 35 35 36 36 35 37 40 39 40 31 30 27 27 25 29 26 26 25 23 26 27 31 33 37 36 35 35 35 35 30
37 36 36 40 40 39 40 38 38 38 38 35 35 34 33 33 34 34 32 30 26 27 30 27 26 22 20 23 25 26 30 31 32 33 34 35 33 31
38 37 37 41 41 41 40 40 41 41 36 35 35 35 34 33 32 32 32 31 31 31 30 29 20 22 20 18 22 27 25 26 28 26 27 29 30 31
36 37 38 38 40 39 39 41 40 38 36 35 35 35 34 36 33 32 30 29 28 29 29 28 24 25 20 17 20 22 22 27 26 25 25 27 27 27
37 37 37 37 38 39 38 37 37 37 36 35 34 34 34 33 33 33 32 30 27 21 27 31 29 24 19 21 21 20 24 21 25 25 25 26 28 28
38 37 36 35 33 34 35 34 32 32 31 33 33 34 34 34 33 33 33 31 27 19 27 28 28 27 24 20 19 26 26 24 25 25 24 23 27 27
38 36 35 34 33 31 31 33 33 34 33 34 34 33 33 33 33 32 32 32 29 27 26 29 27 26 25 24 29 25 22 23 24 24 25 23 24 26
34 34 34 34 33 33 33 33 33 33 33 33 33 33 33 33 33 32 32 31 29 28 29 29 26 24 20 19 26 30 25 25 25 25 25 24 22 25
33 33 34 35 33 33 33 33 33 33 33 33 33 33 33 33 32 32 32 31 30 27 29 30 27 26 26 23 23 25 30 23 24 23 21 25 26 27
30 30 32 33 34 33 33 33 33 33 33 33 33 33 33 32 32 32 32 34 32 28 27 28 29 31 28 26 22 23 26 30 28 23 22 21 22 24
30 29 31 33 34 33 33 33 33 33 33 33 33 33 33 32 32 32 32 32 32 31 29 25 28 30 22 24 18 21 24 27 28 29 29 26 19 18
29 30 31 33 34 34 33 33 32 33 33 33 33 33 33 32 32 32 32 32 32 29 29 28 29 24 23 24 22 21 21 23 24 24 25 27 27 28